Flag for Germany Weather past 2 weeks in Ennepetal, North Rhine-Westphalia, Germany

Now
70 °F

Partly sunny.


Feels Like: 70 °F
Forecast: 55 / 74 °F
Wind: 10 mph from North

Location: Dortmund / Wickede

Current Time: Jul 25, 2014 at 6:04:18 PM

Latest Report: Jul 25, 2014 at 5:20 PM


Visibility: N/A

Pressure: 29.92 "Hg

Humidity: 69%

Dew point: 59 °F

Location of EnnepetalLocation

Historic Weather in Ennepetal — Graph

°F

Ennepetal temperature yesterday

Maximum temperature yesterday: 77 °F (at 1:50 PM)
Minimum temperature yesterday: 59 °F (at 5:20 AM)
Average temperature yesterday: 70 °F

Past Weeks' High & Low Weather Summary

 TemperatureHumidityPressure
High90 °F (Jul 19, 1:20 PM)100% (Jul 21, 12:50 PM)30.18 "Hg (Jul 21, 12:50 PM)
Low55 °F (Jul 15, 5:20 AM)22% (Jul 19, 2:50 PM)29.71 "Hg (Jul 13, 6:50 PM)
Average71 °F65%29.97 "Hg
* Reported Jul 10 4:20 PM — Jul 25 4:50 PM, Ennepetal, Weather by CustomWeather, © 2014

Note: Actual official high and low records may vary slightly from our data, if they occured in-between our weather recording intervals... More about our weather records

Advertising

Ennepetal weather history for previous 24 hours

 ConditionsComfort  
Time TempWeatherWind HumidityBarometerVisibility
4:50 PM
Jul 25
68 °FPartly sunny.7 mph73%29.95 "HgN/A
4:20 PM70 °FPassing clouds.7 mph69%29.95 "HgN/A
3:50 PM68 °FBroken clouds.8 mph73%29.95 "HgN/A
3:20 PM66 °FScattered clouds.7 mph78%29.95 "HgN/A
2:20 PM64 °FPartly sunny.5 mph83%29.98 "HgN/A
1:50 PM63 °FDrizzle. Partly sunny.3 mph88%29.98 "HgN/A
1:20 PM63 °FPartly sunny.6 mph88%29.98 "HgN/A
12:50 PM63 °FPartly sunny.6 mph88%29.98 "HgN/A
12:20 PM63 °FPartly sunny.6 mph88%29.98 "Hg6 mi
11:50 AM63 °FSprinkles. Low clouds.7 mph88%29.98 "Hg5 mi
11:20 AM63 °FLow clouds.6 mph83%29.98 "HgN/A
10:50 AM63 °FMore clouds than sun.7 mph83%29.98 "HgN/A
10:20 AM61 °FMore clouds than sun.8 mph88%29.98 "HgN/A
9:50 AM61 °FMore clouds than sun.7 mph88%29.98 "HgN/A
9:20 AM61 °FPartly sunny.7 mph88%29.98 "HgN/A
8:50 AM61 °FPartly sunny.8 mph83%29.98 "HgN/A
8:20 AM63 °FPartly sunny.7 mph77%29.98 "HgN/A
7:50 AM63 °FPartly sunny.7 mph77%29.98 "HgN/A
7:20 AM61 °FPartly sunny.3 mph83%29.98 "HgN/A
6:50 AM61 °FPartly sunny.3 mph83%29.98 "HgN/A
6:20 AM61 °FPassing clouds.3 mph83%29.98 "HgN/A
5:50 AM59 °FPassing clouds.3 mph88%29.98 "HgN/A
5:20 AM59 °FPassing clouds.5 mph88%29.98 "HgN/A
10:50 PM
Jul 24
64 °FPassing clouds.5 mph73%30.01 "HgN/A
10:20 PM64 °FPassing clouds.7 mph73%30.01 "HgN/A
9:50 PM66 °FPassing clouds.9 mph68%30.01 "HgN/A
9:20 PM66 °FPassing clouds.9 mph68%30.01 "HgN/A
8:50 PM68 °FPassing clouds.10 mph60%30.01 "HgN/A
8:20 PM72 °FPassing clouds.8 mph57%29.98 "HgN/A
7:50 PM72 °FPassing clouds.9 mph50%29.98 "HgN/A
7:20 PM72 °FPassing clouds.10 mph53%29.98 "HgN/A
6:50 PM72 °FPassing clouds.13 mph53%29.98 "HgN/A
6:20 PM73 °FPassing clouds.13 mph47%29.98 "HgN/A
Weather by CustomWeather, © 2014

See weather overviewHow to use our weather pages